This is the latest recevied weather packets stored in our database for station/object HOWARD. If no packets are shown the sender has not sent any weather packets the latest 10 day(s).
| Time | Temp. | Humidity | Pressure | Rain* | Wind** | Luminosity | Snow |
|---|---|---|---|---|---|---|---|
| 1788617688 | 4.44° C | 57% | 1013.2 hPa | 0 mm | - | - | - |
| 1788617088 | 4.44° C | 58% | 1013.3 hPa | 0 mm | - | - | - |
| 1788616488 | 3.89° C | 60% | 1013.3 hPa | 0 mm | - | - | - |
| 1788615888 | 3.89° C | 60% | 1012.6 hPa | 0 mm | - | - | - |
| 1788615288 | 3.33° C | 61% | 1012.6 hPa | 0 mm | - | - | - |
| 1788614688 | 3.33° C | 59% | 1012.6 hPa | 0 mm | - | - | - |
| 1788614088 | 3.33° C | 58% | 1012.5 hPa | 0 mm | - | - | - |
| 1788613488 | 3.33° C | 62% | 1012.5 hPa | 0 mm | - | - | - |
| 1788612888 | 3.33° C | 61% | 1012.6 hPa | 0 mm | - | - | - |
| 1788612288 | 3.33° C | 58% | 1012.6 hPa | 0 mm | - | - | - |
| 1788611688 | 3.33° C | 58% | 1012.5 hPa | 0 mm | - | - | - |
| 1788611088 | 3.33° C | 59% | 1012.5 hPa | 0 mm | - | - | - |
| 1788610488 | 3.33° C | 58% | 1012.6 hPa | 0 mm | - | - | - |
| 1788609888 | 3.33° C | 57% | 1012.4 hPa | 0 mm | - | - | - |
| 1788609288 | 3.33° C | 59% | 1012.5 hPa | 0 mm | - | - | - |
| 1788608688 | 3.33° C | 58% | 1012.4 hPa | 0 mm | - | - | - |
| 1788608088 | 2.78° C | 61% | 1012.4 hPa | 0 mm | - | - | - |
| 1788607488 | 2.78° C | 61% | 1012.5 hPa | 0 mm | - | - | - |
| 1788606888 | 3.33° C | 61% | 1012.4 hPa | 0 mm | - | - | - |
| 1788606288 | 3.33° C | 59% | 1012.4 hPa | 0 mm | - | - | - |
| 1788605688 | 3.33° C | 60% | 1012.4 hPa | 0 mm | - | - | - |
| 1788605088 | 3.33° C | 61% | 1012.7 hPa | 0 mm | - | - | - |
| 1788604488 | 3.33° C | 61% | 1012.6 hPa | 0 mm | - | - | - |
| 1788603888 | 2.78° C | 61% | 1012.5 hPa | 0 mm | - | - | - |
| 1788603288 | 2.78° C | 62% | 1012.5 hPa | 0 mm | - | - | - |
* Rain latest hour (hover to see other rain measurements)
** Current wind speed in m/s (hover to see current wind gust speed)